When you browse on this site, cookies collect data to enhance your experience and personalize the content and advertising you see.
Visit our Privacy Policy to learn more. By continuing to use the site, you agree to this use of cookies and data.
  • In Sweden
  • List of Countries
  • For 7 days
  • Water Temperature
  • Weather Map
  • Weather Widgets
  • user-avatar
    Login

    Hourly Weather Bangkinang

    Today, 2 June, Tuesday

    Time Temperature Precipitation Wind Pressure Humidity
    00:00 +24°C° 0 mm 0 mps 755 mmHg 94%
    01:00 +24°C° 0 mm 0 mps 755 mmHg 93%
    02:00 +24°C° 0 mm 0 mps 755 mmHg 94%
    03:00 +24°C° 0 mm 0 mps 754 mmHg 95%
    04:00 +24°C° 0 mm 0 mps 753 mmHg 96%
    05:00 +24°C° 0 mm 0 mps 754 mmHg 95%
    06:00 +24°C° 0 mm 0 mps 754 mmHg 94%
    07:00 +26°C° 0 mm 1 mps 755 mmHg 97%
    08:00 +28°C° 0 mm 1 mps 755 mmHg 88%
    09:00 +30°C° 0 mm 1 mps 755 mmHg 79%
    10:00 +30°C° 0 mm 0 mps 755 mmHg 70%
    11:00 +33°C° 0.1 mm 1 mps 755 mmHg 66%
    12:00 +34°C° 0.1 mm 1 mps 754 mmHg 62%
    13:00 +35°C° 0 mm 1 mps 754 mmHg 52%
    14:00 +35°C° 0.1 mm 1 mps 753 mmHg 56%
    15:00 +34°C° 0.1 mm 1 mps 752 mmHg 59%
    16:00 +34°C° 0.1 mm 1 mps 751 mmHg 62%
    17:00 +32°C° 0.4 mm 1 mps 752 mmHg 71%
    18:00 +30°C° 0.4 mm 1 mps 753 mmHg 80%
    19:00 +26°C° 0 mm 0 mps 753 mmHg 92%
    20:00 +27°C° 1.3 mm 1 mps 754 mmHg 93%
    21:00 +27°C° 1.3 mm 1 mps 754 mmHg 95%
    22:00 +26°C° 1.3 mm 1 mps 754 mmHg 96%
    23:00 +26°C° 0.5 mm 1 mps 754 mmHg 96%

    Tomorrow, 3 June, Wednesday

    Time Temperature Precipitation Wind Pressure Humidity
    00:00 +26°C° 0.5 mm 1 mps 754 mmHg 97%
    01:00 +26°C° 0.5 mm 1 mps 755 mmHg 97%
    02:00 +23°C° 0 mm 0 mps 754 mmHg 97%
    03:00 +23°C° 0 mm 0 mps 754 mmHg 97%
    04:00 +23°C° 0 mm 0 mps 753 mmHg 98%
    05:00 +23°C° 0 mm 0 mps 753 mmHg 97%
    06:00 +23°C° 0 mm 0 mps 754 mmHg 97%
    07:00 +24°C° 0 mm 0 mps 754 mmHg 97%
    08:00 +28°C° 0 mm 1 mps 754 mmHg 88%
    09:00 +30°C° 0 mm 1 mps 754 mmHg 79%
    10:00 +32°C° 0 mm 1 mps 754 mmHg 70%
    11:00 +33°C° 0 mm 1 mps 754 mmHg 65%
    12:00 +34°C° 0 mm 1 mps 753 mmHg 61%
    13:00 +35°C° 0 mm 1 mps 753 mmHg 56%
    14:00 +35°C° 0 mm 1 mps 752 mmHg 56%
    15:00 +35°C° 0 mm 1 mps 751 mmHg 56%
    16:00 +35°C° 0 mm 1 mps 751 mmHg 56%
    17:00 +33°C° 0.1 mm 1 mps 751 mmHg 65%
    18:00 +31°C° 0.1 mm 1 mps 752 mmHg 73%
    19:00 +29°C° 0.1 mm 1 mps 753 mmHg 82%
    20:00 +28°C° 0.7 mm 1 mps 753 mmHg 85%
    21:00 +28°C° 0.7 mm 1 mps 753 mmHg 89%
    22:00 +25°C° 0.7 mm 0 mps 754 mmHg 92%
    23:00 +25°C° 0.2 mm 0 mps 754 mmHg 94%

    Day after tomorrow, 4 June, Thursday

    Time Temperature Precipitation Wind Pressure Humidity
    00:00 +26°C° 0.2 mm 1 mps 754 mmHg 96%
    01:00 +26°C° 0.2 mm 1 mps 754 mmHg 98%
    02:00 +26°C° 0.2 mm 1 mps 753 mmHg 98%
    03:00 +26°C° 0.2 mm 1 mps 753 mmHg 98%
    04:00 +26°C° 0.2 mm 1 mps 753 mmHg 98%
    05:00 +26°C° 0.1 mm 1 mps 753 mmHg 98%
    06:00 +26°C° 0.1 mm 1 mps 754 mmHg 97%
    07:00 +26°C° 0.1 mm 1 mps 754 mmHg 97%
    08:00 +28°C° 0 mm 1 mps 754 mmHg 87%
    09:00 +30°C° 0 mm 1 mps 754 mmHg 77%
    10:00 +32°C° 0 mm 2 mps 754 mmHg 67%
    11:00 +34°C° 0.2 mm 2 mps 754 mmHg 63%
    12:00 +35°C° 0.2 mm 2 mps 753 mmHg 59%
    13:00 +36°C° 0.2 mm 2 mps 753 mmHg 55%
    14:00 +34°C° 1.4 mm 1 mps 753 mmHg 63%
    15:00 +33°C° 1.4 mm 1 mps 752 mmHg 71%
    16:00 +32°C° 1.4 mm 1 mps 752 mmHg 79%
    17:00 +30°C° 2.4 mm 1 mps 752 mmHg 84%
    18:00 +29°C° 2.4 mm 1 mps 753 mmHg 89%
    19:00 +25°C° 2.4 mm 0 mps 753 mmHg 94%
    20:00 +27°C° 2.5 mm 1 mps 754 mmHg 96%
    21:00 +26°C° 2.5 mm 1 mps 754 mmHg 97%
    22:00 +26°C° 2.5 mm 1 mps 755 mmHg 99%
    23:00 +26°C° 2.5 mm 1 mps 755 mmHg 99%

    5 June, Friday

    Time Temperature Precipitation Wind Pressure Humidity
    00:00 +25°C° 2.5 mm 1 mps 755 mmHg 99%
    01:00 +25°C° 2.5 mm 1 mps 755 mmHg 99%
    02:00 +25°C° 0.1 mm 1 mps 754 mmHg 98%
    03:00 +25°C° 0.1 mm 1 mps 754 mmHg 98%
    04:00 +25°C° 0.1 mm 1 mps 754 mmHg 98%
    05:00 +25°C° 0 mm 1 mps 754 mmHg 98%
    06:00 +25°C° 0 mm 1 mps 754 mmHg 98%
    07:00 +23°C° 0 mm 0 mps 754 mmHg 97%
    08:00 +23°C° 0 mm 0 mps 755 mmHg 96%
    09:00 +24°C° 0 mm 0 mps 755 mmHg 95%
    10:00 +24°C° 0 mm 0 mps 755 mmHg 94%
    11:00 +25°C° 0 mm 0 mps 755 mmHg 87%
    12:00 +29°C° 0 mm 1 mps 754 mmHg 80%
    13:00 +30°C° 0 mm 1 mps 754 mmHg 73%
    14:00 +29°C° 0 mm 1 mps 753 mmHg 75%
    15:00 +28°C° 0 mm 1 mps 753 mmHg 78%
    16:00 +26°C° 0 mm 0 mps 753 mmHg 81%
    17:00 +25°C° 0.5 mm 0 mps 753 mmHg 83%
    18:00 +25°C° 0.5 mm 0 mps 754 mmHg 84%
    19:00 +24°C° 0.5 mm 0 mps 754 mmHg 86%
    20:00 +24°C° 0.8 mm 0 mps 755 mmHg 89%
    21:00 +25°C° 0.8 mm 1 mps 755 mmHg 91%
    22:00 +25°C° 0.8 mm 1 mps 756 mmHg 94%
    23:00 +25°C° 0 mm 1 mps 756 mmHg 95%

    6 June, Saturday

    Time Temperature Precipitation Wind Pressure Humidity
    00:00 +23°C° 0 mm 0 mps 756 mmHg 97%
    01:00 +23°C° 0 mm 0 mps 756 mmHg 98%
    02:00 +23°C° 0.3 mm 0 mps 755 mmHg 98%
    03:00 +23°C° 0.3 mm 0 mps 755 mmHg 98%
    04:00 +23°C° 0.3 mm 0 mps 755 mmHg 98%
    05:00 +23°C° 0 mm 0 mps 755 mmHg 98%
    06:00 +23°C° 0 mm 0 mps 755 mmHg 98%
    07:00 +23°C° 0 mm 0 mps 755 mmHg 98%
    08:00 +26°C° 0 mm 1 mps 755 mmHg 90%
    09:00 +28°C° 0 mm 1 mps 755 mmHg 83%
    10:00 +29°C° 0 mm 1 mps 755 mmHg 75%
    11:00 +31°C° 0 mm 1 mps 755 mmHg 68%
    12:00 +32°C° 0 mm 1 mps 754 mmHg 61%
    13:00 +33°C° 0 mm 1 mps 754 mmHg 55%
    14:00 +33°C° 0 mm 1 mps 753 mmHg 56%
    15:00 +33°C° 0 mm 1 mps 753 mmHg 57%
    16:00 +33°C° 0 mm 1 mps 752 mmHg 59%
    17:00 +31°C° 0 mm 1 mps 753 mmHg 67%
    18:00 +29°C° 0 mm 1 mps 753 mmHg 75%
    19:00 +28°C° 0 mm 1 mps 753 mmHg 82%
    20:00 +27°C° 0 mm 1 mps 754 mmHg 84%
    21:00 +25°C° 0 mm 0 mps 754 mmHg 85%
    22:00 +25°C° 0 mm 0 mps 755 mmHg 86%
    23:00 +24°C° 0 mm 0 mps 755 mmHg 87%

    7 June, Sunday

    Time Temperature Precipitation Wind Pressure Humidity
    00:00 +24°C° 0 mm 0 mps 754 mmHg 88%
    01:00 +24°C° 0 mm 0 mps 754 mmHg 89%
    02:00 +23°C° 0 mm 0 mps 754 mmHg 91%
    03:00 +23°C° 0 mm 0 mps 753 mmHg 92%
    04:00 +23°C° 0 mm 0 mps 753 mmHg 94%
    05:00 +23°C° 0 mm 0 mps 753 mmHg 93%
    06:00 +23°C° 0 mm 0 mps 753 mmHg 92%
    07:00 +23°C° 0 mm 0 mps 754 mmHg 91%
    08:00 +26°C° 0 mm 0 mps 754 mmHg 80%
    09:00 +28°C° 0 mm 0 mps 754 mmHg 69%
    10:00 +31°C° 0 mm 0 mps 754 mmHg 58%
    11:00 +32°C° 0 mm 0 mps 753 mmHg 53%
    12:00 +34°C° 0 mm 0 mps 753 mmHg 48%
    13:00 +35°C° 0 mm 0 mps 752 mmHg 42%
    14:00 +35°C° 0 mm 0 mps 751 mmHg 43%
    15:00 +34°C° 0 mm 0 mps 751 mmHg 43%
    16:00 +34°C° 0 mm 0 mps 750 mmHg 44%
    17:00 +31°C° 0 mm 0 mps 751 mmHg 51%
    18:00 +29°C° 0 mm 0 mps 751 mmHg 59%
    19:00 +27°C° 0 mm 0 mps 751 mmHg 67%
    20:00 +26°C° 0 mm 0 mps 752 mmHg 69%
    21:00 +26°C° 0 mm 0 mps 753 mmHg 71%
    22:00 +25°C° 0 mm 0 mps 753 mmHg 73%
    23:00 +25°C° 0 mm 0 mps 753 mmHg 76%
    Show more